DW9509 Weather Reports


Display with metric or nautical units.
time (UTC)temp
F
wind
direction
speed
MPH
gust
MPH
rain 1hr
in
rain 24hr
in
rain mn
in
humidity
%
barometer
mb
20190620084507 0 0.0 0.0 0.00 0.55 0.00 997.1
20190620083157 0 0.0 0.0 0.00 0.55 0.00 997.1
20190620081712 0 0.0 0.0 0.00 0.55 0.00 997.1
20190620080135 57 10 1.0 4.0 0.00 0.55 0.00 98 997.1
20190620074614 58 350 2.0 5.0 0.00 0.55 0.00 97 997.1
20190620073231 58 30 2.0 6.0 0.00 0.55 0.00 98 996.9
20190620071639 58 347 1.0 5.0 0.00 0.55 0.00 97 997.0
20190620070148 58 43 2.0 5.0 0.00 0.55 0.00 97 996.6
20190620064619 58 8 0.0 4.0 0.00 0.55 0.00 97 996.9
20190620063123 58 57 4.0 6.0 0.00 0.55 0.00 96 996.9
20190620061706 58 61 4.0 7.0 0.00 0.55 0.00 96 996.6
20190620060140 58 67 4.0 6.0 0.00 0.55 0.00 97 996.4
20190620054559 58 33 1.0 3.0 0.00 0.55 0.00 97 996.6
20190620053125 59 78 2.0 5.0 0.00 0.55 0.00 96 996.7
20190620051620 59 91 2.0 6.0 0.00 0.55 0.00 95 996.8
20190620050050 59 91 5.0 14.0 0.00 0.55 0.00 93 996.6
20190620044545 60 100 8.0 15.0 0.00 0.55 0.55 93 997.1
20190620043101 60 91 5.0 12.0 0.00 0.55 0.55 94 997.2
20190620041614 61 83 5.0 11.0 0.00 0.55 0.55 96 997.5
20190620040053 61 75 4.0 10.0 0.00 0.55 0.55 96 997.6
20190620034530 61 81 4.0 10.0 0.00 0.55 0.55 96 997.5
20190620033040 61 113 4.0 12.0 0.00 0.55 0.55 96 997.6
20190620031541 62 67 4.0 10.0 0.00 0.55 0.55 96 997.4
20190620030054 62 80 8.0 14.0 0.00 0.55 0.55 96 997.3
20190620024519 63 61 5.0 10.0 0.00 0.55 0.55 98 997.1
20190620023012 63 72 7.0 11.0 0.00 0.55 0.55 98 996.7
20190620021539 63 68 3.0 8.0 0.00 0.55 0.55 98 996.6
20190620020011 63 122 5.0 12.0 0.01 0.55 0.55 98 996.4
20190620014512 63 35 5.0 11.0 0.03 0.55 0.55 98 996.2
20190620013009 64 125 5.0 12.0 0.05 0.55 0.55 98 996.1
20190620011504 64 92 4.0 12.0 0.07 0.55 0.55 98 996.2
20190620010002 64 70 8.0 14.0 0.07 0.54 0.54 98 996.1
20190620004505 65 58 5.0 11.0 0.08 0.52 0.52 98 996.3
20190620003143 65 121 5.0 10.0 0.08 0.50 0.50 98 996.3
20190620001635 65 51 6.0 14.0 0.09 0.48 0.48 98 996.2
20190620000222 65 74 5.0 13.0 0.10 0.47 0.47 98 996.1
20190619234614 65 46 7.0 11.0 0.10 0.44 0.44 98 996.0
20190619233120 65 82 6.0 12.0 0.11 0.41 0.41 98 996.1
20190619231658 65 52 5.0 11.0 0.12 0.39 0.39 98 996.2
20190619230121 66 66 4.0 13.0 0.12 0.37 0.37 98 996.3
20190619224623 66 41 8.0 15.0 0.12 0.34 0.34 98 996.4
20190619223123 66 75 8.0 15.0 0.09 0.28 0.28 98 996.5
20190619221623 67 70 8.0 14.0 0.08 0.27 0.27 98 996.5
20190619220117 67 50 3.0 10.0 0.07 0.24 0.24 98 996.6
20190619214729 67 89 5.0 11.0 0.08 0.22 0.22 97 996.6
20190619213206 67 75 4.0 10.0 0.07 0.20 0.20 97 996.6
20190619211557 67 61 5.0 12.0 0.08 0.19 0.19 97 996.6
20190619210127 67 47 5.0 14.0 0.09 0.17 0.17 97 996.6
20190619204611 67 26 5.0 10.0 0.08 0.14 0.14 97 996.7
20190619203113 68 51 1.0 9.0 0.07 0.13 0.13 97 996.9
20190619201644 68 91 3.0 8.0 0.05 0.10 0.10 96 997.0
20190619200115 68 82 5.0 13.0 0.03 0.08 0.08 95 997.0
20190619194547 68 82 2.0 10.0 0.02 0.06 0.06 95 997.1
20190619193110 68 69 2.0 9.0 0.02 0.06 0.06 95 997.3
20190619191551 68 64 4.0 10.0 0.02 0.05 0.05 95 997.5
20190619190039 68 54 4.0 7.0 0.03 0.05 0.05 94 997.9
20190619184534 68 75 4.0 10.0 0.02 0.04 0.04 94 998.0
20190619183059 68 331 3.0 10.0 0.03 0.04 0.04 94 998.2
20190619181607 68 81 3.0 9.0 0.02 0.03 0.03 93 998.4
20190619180032 68 113 3.0 7.0 0.01 0.02 0.02 93 998.6
20190619174527 69 121 5.0 9.0 0.01 0.02 0.02 92 998.7
20190619173025 69 73 4.0 9.0 0.00 0.01 0.01 90 998.8
20190619171531 69 77 4.0 8.0 0.00 0.01 0.01 90 998.9
20190619170023 69 70 4.0 8.0 0.00 0.01 0.01 89 999.1
20190619164534 69 86 2.0 8.0 0.00 0.01 0.01 88 999.2
20190619163020 69 85 3.0 7.0 0.00 0.01 0.01 88 999.3
20190619161544 69 87 3.0 15.0 0.00 0.01 0.01 88 999.2
20190619160024 69 86 7.0 11.0 0.00 0.01 0.01 90 999.2
20190619154543 69 89 6.0 10.0 0.00 0.01 0.01 92 999.3
20190619153035 68 94 8.0 12.0 0.00 0.01 0.01 92 999.5
20190619151509 68 86 7.0 14.0 0.00 0.01 0.01 93 999.5
20190619150013 68 89 5.0 10.0 0.00 0.01 0.01 94 999.5
20190619144504 67 56 5.0 8.0 0.00 0.01 0.01 94 999.8
20190619143004 67 349 3.0 10.0 0.00 0.01 0.01 95 999.9
20190619141503 67 61 4.0 8.0 0.00 0.01 0.01 95 999.9
20190619140006 66 93 6.0 10.0 0.01 0.01 0.01 95 1000.1
20190619134508 66 84 4.0 8.0 0.01 0.01 0.01 96 1000.1
20190619133109 66 79 2.0 12.0 0.01 0.01 0.01 95 1000.1
20190619131629 66 77 3.0 11.0 0.01 0.01 0.01 95 999.8
20190619130233 66 30 2.0 9.0 0.00 0.00 0.00 96 999.6
20190619124727 66 80 7.0 12.0 0.00 0.00 0.00 96 999.8
20190619123139 66 56 7.0 13.0 0.00 0.00 0.00 96 1000.1
20190619121620 0 0.0 0.0 0.00 0.00 0.00 1000.4
20190619120110 0 0.0 0.0 0.00 0.00 0.00 1000.6
20190619114640 0 0.0 0.0 0.00 0.00 0.00 1000.7
20190619113128 0 0.0 0.0 0.00 0.00 0.00 1000.6
20190619111603 0 0.0 0.0 0.00 0.00 0.00 1000.5
20190619110130 0 0.0 0.0 0.00 0.00 0.00 1000.6
20190619104600 0 0.0 0.0 0.00 0.00 0.00 1000.3
20190619103036 0 0.0 0.0 0.00 0.00 0.00 1000.1
20190619101544 66 63 1.0 5.0 0.00 0.00 0.00 94 1000.1
20190619100033 66 43 1.0 5.0 0.00 0.00 0.00 94 1000.3
20190619094520 67 60 2.0 5.0 0.00 0.00 0.00 93 1000.5
20190619093014 67 53 2.0 6.0 0.00 0.00 0.00 93 1000.6
20190619091511 67 57 1.0 3.0 0.00 0.00 0.00 91 1000.7
20190619090030 68 63 2.0 4.0 0.00 0.00 0.00 90 1000.6